STARLINK-11283, 60993

Orbit data source: Space-Track

STARLINK-11283, 60993 is a payload satellite owned by SpaceX/Seattle (US) in LEO that was launched on Thu, 05 Sep 2024 UTC via an FALCON 9 launch vehicle from the Air Force Eastern Test Range (AFETR). Payload-class satellites include a variety of spacecraft equipped with specific instruments for various scientific and technological missions. These include communications satellites like Starlink; space stations such as the ISS; scientific satellites like the Hubble; Earth observation satellites from companies like Planet Labs, Umbra, and HawkEye 360; GPS; miniature CubeSats for education and research; and military/defense satellites.

Loading next visibility...
Identifier
60993, 2024-158D
Orbit
LEO
Last TLE update
21 hours ago
Origin
Manufacturer
SpaceX/Seattle
Mission
Operational Commercial Communications
Bus & Motor
STARLINK V2M, Unknown motor
Mass
730 kg wet, ~700 kg dry
Launch date (UTC)
2024-09-05 (10 months ago)
Launch vehicle
FALCON 9
Launch site
Air Force Eastern Test Range (AFETR)
Object type
Payload
Rocket body
Debris
Shape & HBR
Box + 2 Pan, 29 m
Radar Cross Section
36.964 m², Large (>1 m²)

Expand to show TLE details & history

TLE from 21 hours ago
0 STARLINK-11283
1 60993U 24158D   25186.04046705 -.00001076  00000-0 -40299-5 0  9990
2 60993  53.1583  62.4438 0000805  77.7620 282.3488 15.69701382 48697
Epoch: 2025-07-05T00:58Z
TLE epoch observation values (Epoch: 2025-07-05T00:58:16.353Z)
Latitude
-0°
Longitude
124.59144°
Altitude
360.55 km
Speed
7.694 km/s
True Right ascension
04h 09m 46s
True Declination
0° 00' 00"
Sunlit
Object was in daylight at epoch
Visualization orbit readout
Latitude
1.20578°
Longitude
121.09312°
Altitude
360.418 km
Speed
7.694 km/s
Apparent Right ascension
01h 39m 40s
Apparent Declination
-24° 16' 51"
Sunlit
Object is in daylight
Visualization observer readout
Local Sidereal Time
10:18:24
Azimuth
274.735° WNW
Elevation
-45.259°
Doppler factor
1
Orbital elements
Apogee altitude
360.555 km
Perigee altitude
359.47 km
Semi-major axis
6,738.149 km
Eccentricity
0.00008
Inclination
53.1583°
RAAN
62.4438°
Arg. of periapsis
77.762°
True anomaly
Unknown
Mean anomaly
282.3488°
Eccentric anomaly
Unknown
Mean motion
3.92403 °/min
Orbital period
91.74 mins
BSTAR
-0.0000040299
Loading maneuver chart data...
Loading SW <> Apogee altitude chart data...
Loading historical data...
Loading historical data...
Loading historical data...
Loading historical data...
Loading historical data...
Loading historical data...
Loading historical data...

STARLINK-11283 Visibility forecast

Observer location: undefined°, undefined°

Span
Click to sort rows by Start time (UTC) header in descending order
Start Az.
Max El. time (UTC)
Max El. Az.
Max El.
End time (UTC)
End Az.
4 mins2025-07-06 00:21:13.916Z334.117° NNW2025-07-06 00:23:13.916Z18.413° NNE22.213°2025-07-06 00:25:13.916Z77.397° E
4 mins2025-07-06 18:26:13.916Z249.206° W2025-07-06 18:28:13.916Z353.529° N38.469°2025-07-06 18:30:13.916Z40.194° NE
|